Location: Cahas Mountain Overlook
(37.0833°N, 80.1000°W)
Time: 09:26:14
(UTC-05:00)

S-56A Canister/Altair - Pass Details

Date: 05 December 2023
Orbit: 640 x 2488 km, 38.9° (Epoch: 25 February)

Event Time Altitude Azimuth Distance (km) Brightness Sun altitude
Rises 14:25:16 0° 278° (W) 2,937 10.9 22.6°
Reaches altitude 10° 14:27:30 10° 280° (W) 2,024 10.1 22.4°
Maximum altitude 14:31:57 73° 5° (N) 716 7.6 21.9°
Drops below altitude 10° 14:37:19 10° 91° (E) 2,415 9.8 21.3°
Sets 14:40:12 0° 93° (E) 3,566 10.6 20.9°
